Flag for U.S.A. Weather past 2 weeks in Loma Linda, California, U.S.A.

Now
56 °F

Clear.


Feels Like: 56 °F
Forecast: 62 / 90 °F
Wind: No wind

Location: Riverside / March Air Force Base

Current Time: May 30, 2015 at 6:07:33 AM

Latest Report: May 30, 2015 at 4:58 AM


Visibility: 10 mi

Pressure: 29.88 "Hg

Humidity: 92%

Dew point: 54 °F

Location of Loma LindaLocation

Historic Weather in Loma Linda — Graph

°F

Loma Linda temperature yesterday

Maximum temperature yesterday: 89 °F (at 2:58 PM)
Minimum temperature yesterday: 52 °F (at 5:58 AM)
Average temperature yesterday: 71 °F

Past Weeks' High & Low Weather Summary

 TemperatureHumidityPressure
High89 °F (May 29, 2:58 PM)100% (May 16, 4:03 AM)30.08 "Hg (May 16, 4:03 AM)
Low48 °F (May 16, 5:58 AM)23% (May 29, 5:58 PM)29.81 "Hg (May 15, 3:58 PM)
Average61 °F71%29.96 "Hg
* Reported May 15 4:58 AM — May 30 4:58 AM, Loma Linda, Weather by CustomWeather, © 2015

Note: Actual official high and low records may vary slightly from our data, if they occured in-between our weather recording intervals... More about our weather records

Advertising

Loma Linda weather history for previous 24 hours

 ConditionsComfort  
Time TempWeatherWind HumidityBarometerVisibility
4:58 AM
Sat, May 30
56 °FClear.No wind92%29.88 "Hg10 mi
3:58 AM56 °FClear.3 mph87%29.87 "Hg10 mi
2:58 AM59 °FClear.2 mph84%29.88 "Hg10 mi
1:58 AM62 °FClear.6 mph77%29.89 "Hg10 mi
12:58 AM60 °FClear.3 mph77%29.89 "Hg10 mi
11:58 PM
Fri, May 29
63 °FClear.1 mph67%29.90 "Hg10 mi
10:58 PM66 °FClear.5 mph66%29.90 "Hg10 mi
9:58 PM69 °FClear.5 mph53%29.90 "Hg10 mi
8:58 PM73 °FClear.8 mph42%29.88 "Hg10 mi
7:58 PM78 °FSunny.7 mph28%29.87 "Hg10 mi
6:58 PM82 °FSunny.12 mph29%29.87 "Hg10 mi
5:58 PM86 °FSunny.12 mph23%29.85 "Hg10 mi
4:58 PM87 °FSunny.12 mph26%29.85 "Hg10 mi
3:58 PM89 °FSunny.13 mph26%29.85 "Hg10 mi
2:58 PM89 °FSunny.14 mph25%29.87 "Hg10 mi
1:58 PM88 °FPassing clouds.14 mph29%29.88 "Hg10 mi
12:58 PM85 °FScattered clouds.9 mph31%29.90 "Hg10 mi
11:58 AM83 °FSunny.8 mph34%29.90 "Hg10 mi
10:58 AM80 °FSunny.7 mph44%29.92 "Hg10 mi
9:58 AM74 °FSunny.5 mph54%29.92 "Hg10 mi
8:58 AM67 °FSunny.2 mph68%29.94 "Hg10 mi
7:58 AM62 °FSunny.1 mph80%29.93 "Hg9 mi
6:58 AM58 °FFog.2 mph94%29.92 "Hg6 mi
Weather by CustomWeather, © 2015

See weather overviewHow to use our weather pages